�������l�o���
Date,Time,MP-1(��Sv/h),MP-2(��Sv/h),MP-3(��Sv/h),MP-4(��Sv/h),MP-5(��Sv/h),MP-6(��Sv/h),MP-7(��Sv/h),MP-8(��Sv/h),����,����(m/s),���J
2021/08/08,00:00,0.621,0.930,0.589,1.124,0.802,0.369,0.641,0.597,��쐼,2.2,��
2021/08/08,00:10,0.621,0.930,0.590,1.126,0.803,0.368,0.641,0.594,��쐼,2.0,��
2021/08/08,00:20,0.617,0.930,0.589,1.128,0.804,0.370,0.641,0.595,��쐼,1.7,��
2021/08/08,00:30,0.619,0.929,0.590,1.126,0.804,0.370,0.640,0.595,��쐼,1.7,��
2021/08/08,00:40,0.620,0.930,0.591,1.126,0.805,0.371,0.640,0.597,��,1.9,��
2021/08/08,00:50,0.619,0.928,0.589,1.128,0.806,0.370,0.641,0.595,��쓌,1.2,��
2021/08/08,01:00,0.620,0.932,0.592,1.128,0.806,0.371,0.642,0.597,��쓌,1.2,��
2021/08/08,01:10,0.619,0.927,0.589,1.127,0.805,0.371,0.641,0.595,��쓌,0.9,��
2021/08/08,01:20,0.620,0.929,0.590,1.126,0.806,0.371,0.642,0.596,�쓌,1.4,��
2021/08/08,01:30,0.619,0.930,0.589,1.127,0.806,0.371,0.641,0.596,���쓌,1.4,��
2021/08/08,01:40,0.621,0.928,0.590,1.129,0.806,0.370,0.642,0.597,���쓌,1.2,��
2021/08/08,01:50,0.622,0.929,0.591,1.127,0.805,0.371,0.640,0.596,-,CALM,��
2021/08/08,02:00,0.619,0.930,0.590,1.125,0.804,0.370,0.641,0.596,-,CALM,��
2021/08/08,02:10,0.621,0.931,0.591,1.127,0.807,0.370,0.641,0.597,��쓌,0.6,��
2021/08/08,02:20,0.620,0.931,0.591,1.126,0.804,0.370,0.640,0.596,�쓌,0.9,��
2021/08/08,02:30,0.621,0.932,0.590,1.125,0.807,0.371,0.643,0.598,-,CALM,�L
2021/08/08,02:40,0.622,0.930,0.589,1.127,0.806,0.371,0.640,0.597,�쓌,0.6,�L
2021/08/08,02:50,0.620,0.930,0.591,1.129,0.805,0.370,0.642,0.596,���쓌,0.9,�L
2021/08/08,03:00,0.621,0.929,0.591,1.127,0.804,0.370,0.641,0.598,���쓌,0.6,�L
2021/08/08,03:10,0.620,0.929,0.590,1.126,0.804,0.371,0.640,0.595,��,1.1,�L
2021/08/08,03:20,0.619,0.928,0.589,1.126,0.805,0.371,0.641,0.596,���k��,0.9,�L
2021/08/08,03:30,0.619,0.929,0.590,1.126,0.804,0.371,0.642,0.597,�k��,0.8,��
2021/08/08,03:40,0.618,0.929,0.590,1.126,0.806,0.371,0.639,0.595,���k��,1.2,��
2021/08/08,03:50,0.622,0.928,0.590,1.127,0.804,0.370,0.642,0.596,�k�k��,0.8,��
2021/08/08,04:00,0.620,0.930,0.590,1.128,0.803,0.372,0.640,0.598,�k,1.1,��
2021/08/08,04:10,0.620,0.928,0.591,1.127,0.805,0.371,0.639,0.597,�k�k��,0.8,��
2021/08/08,04:20,0.620,0.930,0.591,1.129,0.803,0.370,0.642,0.597,�k,1.2,��
2021/08/08,04:30,0.622,0.930,0.591,1.125,0.804,0.371,0.642,0.596,�k�k��,1.5,��
2021/08/08,04:40,0.621,0.929,0.592,1.129,0.803,0.372,0.641,0.597,�k,1.7,��
2021/08/08,04:50,0.620,0.931,0.591,1.129,0.806,0.371,0.641,0.597,�k�k��,2.0,��
2021/08/08,05:00,0.622,0.930,0.591,1.129,0.804,0.373,0.642,0.596,�k�k��,2.3,�L
2021/08/08,05:10,0.620,0.935,0.591,1.125,0.805,0.373,0.642,0.598,�k�k��,2.6,�L
2021/08/08,05:20,0.619,0.930,0.590,1.128,0.803,0.372,0.641,0.596,�k,3.1,��
2021/08/08,05:30,0.621,0.931,0.591,1.127,0.804,0.370,0.641,0.596,�k,3.0,�L
2021/08/08,05:40,0.620,0.928,0.590,1.126,0.803,0.372,0.642,0.595,�k,3.9,�L
2021/08/08,05:50,0.621,0.928,0.591,1.129,0.804,0.372,0.639,0.597,�k,3.7,�L
2021/08/08,06:00,0.618,0.929,0.589,1.130,0.805,0.370,0.642,0.596,�k,3.9,�L
2021/08/08,06:10,0.618,0.928,0.592,1.126,0.802,0.370,0.642,0.597,�k,3.9,�L
2021/08/08,06:20,0.621,0.927,0.591,1.130,0.804,0.371,0.642,0.597,�k,4.0,�L
2021/08/08,06:30,0.619,0.928,0.590,1.126,0.804,0.370,0.641,0.597,�k,3.1,�L
2021/08/08,06:40,0.619,0.932,0.589,1.126,0.803,0.371,0.642,0.597,�k,3.7,�L
2021/08/08,06:50,0.619,0.926,0.590,1.125,0.803,0.371,0.641,0.596,�k,3.7,��
2021/08/08,07:00,0.621,0.928,0.589,1.128,0.801,0.369,0.641,0.598,�k,3.6,��
2021/08/08,07:10,0.620,0.929,0.590,1.125,0.803,0.369,0.643,0.597,�k,3.4,��
2021/08/08,07:20,0.619,0.929,0.589,1.128,0.802,0.370,0.641,0.597,�k,3.0,��
2021/08/08,07:30,0.619,0.929,0.590,1.126,0.805,0.370,0.641,0.597,�k,2.6,��
2021/08/08,07:40,0.619,0.930,0.588,1.128,0.803,0.370,0.642,0.597,�k�k��,2.9,��
2021/08/08,07:50,0.621,0.927,0.590,1.126,0.803,0.369,0.643,0.596,�k,3.7,��
2021/08/08,08:00,0.621,0.927,0.589,1.128,0.803,0.370,0.639,0.597,�k,3.5,��
2021/08/08,08:10,0.620,0.929,0.589,1.125,0.802,0.369,0.643,0.597,�k,2.6,��
2021/08/08,08:20,0.621,0.928,0.591,1.126,0.802,0.369,0.641,0.597,�k,4.3,��
2021/08/08,08:30,0.620,0.930,0.588,1.127,0.803,0.370,0.640,0.599,�k,5.1,��
2021/08/08,08:40,0.620,0.930,0.589,1.125,0.804,0.369,0.641,0.598,�k,5.7,��
2021/08/08,08:50,0.621,0.929,0.591,1.125,0.804,0.370,0.642,0.598,�k,5.8,�L
2021/08/08,09:00,0.621,0.927,0.588,1.126,0.805,0.370,0.643,0.598,�k,6.9,�L
2021/08/08,09:10,0.623,0.929,0.589,1.124,0.802,0.370,0.642,0.598,�k,7.0,�L
2021/08/08,09:20,0.623,0.928,0.589,1.126,0.802,0.369,0.642,0.597,�k,5.9,�L
2021/08/08,09:30,0.620,0.930,0.590,1.125,0.799,0.368,0.641,0.598,�k,7.1,�L
2021/08/08,09:40,0.613,0.916,0.585,1.123,0.798,0.368,0.642,0.597,�k,7.3,�L
2021/08/08,09:50,0.608,0.904,0.578,1.112,0.791,0.368,0.640,0.593,�k,6.5,�L
2021/08/08,10:00,0.595,0.884,0.571,1.107,0.791,0.365,0.639,0.594,�k,6.7,�L
2021/08/08,10:10,0.593,0.878,0.568,1.085,0.773,0.364,0.638,0.595,�k,6.6,�L
2021/08/08,10:20,0.582,0.863,0.560,1.063,0.762,0.358,0.632,0.589,��,9.2,�L
2021/08/08,10:30,0.581,0.861,0.555,1.032,0.728,0.350,0.620,0.580,�k,1.2,�L
2021/08/08,10:40,0.584,0.863,0.557,1.038,0.737,0.353,0.620,0.581,�k,8.3,�L
2021/08/08,10:50,0.584,0.862,0.556,1.040,0.740,0.358,0.623,0.583,�k�k��,7.5,�L
2021/08/08,11:00,0.588,0.867,0.559,1.047,0.745,0.360,0.625,0.583,�k�k��,9.7,�L
2021/08/08,11:10,0.591,0.873,0.562,1.053,0.750,0.360,0.624,0.584,�k��,9.4,��
2021/08/08,11:20,0.592,0.874,0.561,1.056,0.749,0.361,0.625,0.584,�k��,9.5,��
2021/08/08,11:30,0.593,0.874,0.563,1.060,0.752,0.361,0.625,0.586,�k��,8.3,��
2021/08/08,11:40,0.594,0.876,0.562,1.063,0.751,0.360,0.625,0.585,�k��,7.7,��
2021/08/08,11:50,0.595,0.877,0.563,1.064,0.754,0.361,0.630,0.586,�k��,6.8,��
2021/08/08,12:00,0.596,0.877,0.564,1.065,0.754,0.361,0.625,0.585,�k�k��,6.6,��
2021/08/08,12:10,0.595,0.878,0.561,1.064,0.756,0.361,0.626,0.584,�k�k��,7.1,��
2021/08/08,12:20,0.596,0.879,0.561,1.067,0.755,0.361,0.625,0.584,�k�k��,7.4,��
2021/08/08,12:30,0.594,0.880,0.564,1.067,0.755,0.361,0.627,0.583,�k�k��,7.2,��
2021/08/08,12:40,0.595,0.879,0.561,1.068,0.757,0.362,0.626,0.585,�k�k��,7.2,��
2021/08/08,12:50,0.594,0.879,0.565,1.069,0.755,0.362,0.627,0.585,�k�k��,8.4,��
2021/08/08,13:00,0.593,0.878,0.564,1.070,0.758,0.362,0.628,0.586,�k�k��,8.5,�L
2021/08/08,13:10,0.595,0.882,0.566,1.070,0.758,0.360,0.629,0.586,�k�k��,8.5,�L
2021/08/08,13:20,0.597,0.881,0.564,1.071,0.759,0.360,0.628,0.586,�k�k��,9.1,�L
2021/08/08,13:30,0.595,0.880,0.562,1.072,0.759,0.362,0.630,0.586,�k�k��,9.2,�L
2021/08/08,13:40,0.594,0.881,0.564,1.072,0.759,0.361,0.629,0.585,�k�k��,8.5,�L
2021/08/08,13:50,0.593,0.881,0.565,1.073,0.758,0.361,0.628,0.586,�k�k��,9.1,�L
2021/08/08,14:00,0.594,0.880,0.564,1.072,0.759,0.362,0.629,0.587,�k�k��,9.5,�L
2021/08/08,14:10,0.595,0.878,0.564,1.073,0.758,0.362,0.630,0.587,�k�k��,10.2,�L
2021/08/08,14:20,0.592,0.880,0.565,1.071,0.757,0.362,0.629,0.588,�k�k��,11.3,�L
2021/08/08,14:30,0.595,0.882,0.565,1.074,0.759,0.361,0.630,0.587,�k�k��,10.2,�L
2021/08/08,14:40,0.592,0.879,0.565,1.072,0.759,0.361,0.630,0.588,�k�k��,9.9,�L
2021/08/08,14:50,0.594,0.880,0.564,1.075,0.762,0.361,0.628,0.588,�k�k��,9.9,�L
2021/08/08,15:00,0.595,0.880,0.565,1.074,0.762,0.362,0.628,0.588,�k�k��,10.3,�L
2021/08/08,15:10,0.593,0.881,0.566,1.075,0.761,0.361,0.630,0.586,�k�k��,9.8,�L
2021/08/08,15:20,0.594,0.878,0.565,1.073,0.759,0.360,0.629,0.586,�k�k��,9.8,�L
2021/08/08,15:30,0.593,0.880,0.564,1.074,0.762,0.364,0.628,0.588,�k�k��,8.9,�L
2021/08/08,15:40,0.592,0.878,0.564,1.073,0.759,0.362,0.630,0.587,�k�k��,9.7,�L
2021/08/08,15:50,0.591,0.874,0.563,1.069,0.756,0.362,0.628,0.586,�k,8.9,�L
2021/08/08,16:00,0.593,0.875,0.562,1.068,0.758,0.362,0.629,0.585,�k�k��,9.9,�L
2021/08/08,16:10,0.591,0.872,0.561,1.068,0.753,0.362,0.629,0.586,�k�k��,9.3,�L
2021/08/08,16:20,0.591,0.873,0.563,1.067,0.755,0.362,0.627,0.588,�k�k��,10.9,�L
2021/08/08,16:30,0.592,0.873,0.561,1.066,0.755,0.361,0.629,0.586,�k�k��,11.3,�L
2021/08/08,16:40,0.594,0.872,0.562,1.066,0.756,0.361,0.628,0.586,�k�k��,10.3,�L
2021/08/08,16:50,0.593,0.874,0.562,1.068,0.756,0.362,0.627,0.585,�k�k��,9.9,�L
2021/08/08,17:00,0.591,0.873,0.562,1.066,0.755,0.361,0.627,0.586,�k,9.6,�L
2021/08/08,17:10,0.592,0.873,0.563,1.068,0.756,0.362,0.626,0.586,�k,10.5,�L
2021/08/08,17:20,0.591,0.874,0.562,1.066,0.755,0.361,0.628,0.586,�k,10.7,�L
2021/08/08,17:30,0.593,0.876,0.561,1.067,0.757,0.361,0.627,0.586,�k,10.9,�L
2021/08/08,17:40,0.591,0.872,0.562,1.067,0.755,0.361,0.624,0.584,�k,11.0,�L
2021/08/08,17:50,0.590,0.868,0.560,1.062,0.753,0.361,0.625,0.583,�k,10.8,�L
2021/08/08,18:00,0.587,0.864,0.559,1.062,0.751,0.360,0.625,0.583,�k,10.5,�L
2021/08/08,18:10,0.586,0.863,0.557,1.056,0.747,0.360,0.623,0.582,�k,10.7,�L
2021/08/08,18:20,0.584,0.859,0.555,1.050,0.742,0.358,0.619,0.581,�k,10.2,�L
2021/08/08,18:30,0.583,0.856,0.555,1.042,0.737,0.357,0.620,0.580,�k,9.2,�L
2021/08/08,18:40,0.584,0.858,0.554,1.046,0.741,0.357,0.620,0.581,�k,8.2,�L
2021/08/08,18:50,0.578,0.852,0.553,1.034,0.733,0.356,0.618,0.580,�k,9.8,�L
2021/08/08,19:00,0.576,0.851,0.551,1.029,0.728,0.355,0.614,0.576,�k,7.8,�L
2021/08/08,19:10,0.577,0.852,0.552,1.031,0.731,0.355,0.611,0.571,�k,7.9,�L
2021/08/08,19:20,0.577,0.852,0.553,1.029,0.727,0.355,0.612,0.571,�k,9.3,�L
2021/08/08,19:30,0.574,0.845,0.549,1.022,0.718,0.354,0.613,0.575,�k,9.0,�L
2021/08/08,19:40,0.579,0.852,0.554,1.025,0.724,0.357,0.614,0.576,�k,10.7,�L
2021/08/08,19:50,0.582,0.853,0.553,1.032,0.727,0.357,0.616,0.577,�k,9.4,�L
2021/08/08,20:00,0.582,0.856,0.555,1.034,0.728,0.357,0.616,0.578,�k�k��,9.5,�L
2021/08/08,20:10,0.585,0.858,0.557,1.036,0.729,0.358,0.617,0.578,�k�k��,9.2,�L
2021/08/08,20:20,0.585,0.858,0.555,1.039,0.731,0.359,0.616,0.578,�k�k��,8.8,�L
2021/08/08,20:30,0.583,0.858,0.554,1.038,0.732,0.360,0.616,0.578,�k�k��,9.9,�L
2021/08/08,20:40,0.584,0.858,0.555,1.040,0.732,0.358,0.616,0.578,�k�k��,8.7,�L
2021/08/08,20:50,0.583,0.859,0.553,1.040,0.731,0.358,0.617,0.577,�k,8.3,�L
2021/08/08,21:00,0.582,0.857,0.553,1.041,0.731,0.358,0.618,0.578,�k�k��,8.1,�L
2021/08/08,21:10,0.578,0.852,0.552,1.038,0.724,0.357,0.615,0.578,�k�k��,9.1,�L
2021/08/08,21:20,0.581,0.856,0.552,1.038,0.726,0.357,0.615,0.577,�k,8.4,�L
2021/08/08,21:30,0.582,0.857,0.554,1.040,0.729,0.357,0.616,0.578,�k,7.2,�L
2021/08/08,21:40,0.583,0.856,0.553,1.041,0.729,0.357,0.616,0.575,�k�k��,8.6,�L
2021/08/08,21:50,0.583,0.856,0.554,1.041,0.730,0.357,0.617,0.580,�k,7.9,�L
2021/08/08,22:00,0.582,0.857,0.554,1.042,0.729,0.358,0.617,0.579,�k,8.6,�L
2021/08/08,22:10,0.582,0.857,0.554,1.043,0.731,0.357,0.617,0.579,�k�k��,7.5,�L
2021/08/08,22:20,0.584,0.857,0.553,1.044,0.733,0.358,0.616,0.580,�k�k��,7.5,�L
2021/08/08,22:30,0.584,0.858,0.553,1.045,0.734,0.358,0.618,0.579,�k�k��,8.6,�L
2021/08/08,22:40,0.582,0.857,0.555,1.045,0.732,0.358,0.618,0.577,�k�k��,8.1,�L
2021/08/08,22:50,0.582,0.856,0.555,1.045,0.731,0.357,0.617,0.578,�k�k��,8.2,�L
2021/08/08,23:00,0.582,0.858,0.555,1.045,0.732,0.357,0.619,0.576,�k�k��,7.6,�L
2021/08/08,23:10,0.581,0.857,0.556,1.045,0.733,0.357,0.616,0.577,�k�k��,8.2,�L
2021/08/08,23:20,0.579,0.855,0.552,1.045,0.729,0.357,0.616,0.575,�k�k��,8.5,�L
2021/08/08,23:30,0.578,0.852,0.551,1.037,0.728,0.355,0.615,0.575,�k�k��,7.3,�L
2021/08/08,23:40,0.578,0.854,0.552,1.037,0.726,0.355,0.615,0.576,�k�k��,6.1,�L
2021/08/08,23:50,0.575,0.848,0.551,1.037,0.728,0.356,0.615,0.576,�k��,5.8,�L
